Weather in Petropavlovka

Russia / Khabarovsk Krai     48°40′54″N   135°31′25″E
temp.,
°C
wind,
m/s
gust,
m/s
humid.,
%
clouds,
%
prec.,
mm/h
press.,
hPa
HPBL,
m
27 february, sat
sat2701:00−21ssw349513 0.0 103435
04:00−22ssw34957 0.0 103429
07:00−22s34950 0.0 103536
10:00−19ssw45942 0.0 1034162
13:00−14sw348766 0.0 1032346
16:00−11sw248483 0.0 1028360
19:00−12ese2289100 0.0 102621
22:00−11sse1289100 0.0 102333
28 february, sun
sun2801:00−9ssw3588100 0.0 1020132
04:00−8sw41095100 1.4 1017433
07:00−6sw51195100 1.1 1017445
10:00−9wsw71191100 1.4 1017323
13:00−8wsw8128869 0.0 1018476
16:00−7w8137485 0.0 1019755
19:00−11wsw71569100 0.0 1022368
22:00−14w81671100 0.0 1024415
1 march, mon
mon101:00−17wsw81577100 0.0 1025332
04:00−19wsw9167850 0.0 1026389
07:00−20wsw1017770 0.0 1028426
10:00−19wsw1016730 0.0 1030610
13:00−15w1014620 0.0 10301084
16:00−14w913660 0.0 1030995
19:00−17wsw611780 0.0 1031178
22:00−20wsw45830 0.0 103243
2 march, tue
tue201:00−23wsw45880 0.0 103250
04:00−23sw56890 0.0 103276
07:00−24sw69830 0.0 1033118
10:00−21wsw610770 0.0 1032336
13:00−17w79720 0.0 1031662
16:00−15w68690 0.0 1030584
19:00−19wsw58850 0.0 103198
22:00−22sw34830 0.0 103222
3 march, wed
wed301:00−24ssw23870 0.0 103120
04:00−24ssw33870 0.0 103020
07:00−25s34880 0.0 103024
10:00−21s34880 0.0 1029142
13:00−15s357813 0.0 1026395
16:00−12sse247150 0.0 1022553
19:00−14ese2383100 0.0 102020
22:00−14s1284100 0.0 101921